Retour au catalogue

STARLINK-4605

ActifCommunicationsVLEO
NORAD 53616·PAYLOAD·🇺🇸 United States

Lancé Aug 28, 2022 depuis Cape Canaveral Space Force Station

Loading…

Prochains Passages (prochaines 24 heures)

TLE

FraisSource: CelesTrak SupGP

Époque: Sep 14, 2026, 21:22 UTC

1 53616C 22104AE  26257.89076389  .00011611  00000+0  34317-3 0  2579
2 53616  53.1586  87.7263 0001183  77.5693  44.8242 15.34375551    18

Suivez STARLINK-4605 en temps réel avec AllMySat

Download on the App Store